Location: Go?cza
(50.3372°N, 19.9313°E)
Time: 23:14:56
(UTC+00:00)

Okean 1 Rocket - Pass Details

Date: 23 May 2024
Orbit: 602 x 631 km, 82.5° (Epoch: 22 June)

Event Time Altitude Azimuth Distance (km) Brightness Sun altitude
Rises 01:35:57 0° 352° (N) 2,879 7.1 -8.8°
Reaches altitude 10° 01:38:13 10° 356° (N) 1,967 6.3 -8.6°
Maximum altitude 01:42:31 61° 77° (ENE) 691 3.6 -8.1°
Drops below altitude 10° 01:46:46 10° 158° (SSE) 1,945 5.4 -7.6°
Sets 01:48:59 0° 162° (SSE) 2,843 6.2 -7.4°
